{"data":{"norad_id":63016,"intl_designator":"2025-032M","name":"STARLINK-11545 [DTC]","alt_names":[],"object_type":"PAYLOAD","status":"ACTIVE","operator":null,"country":"US","launch_date":"2025-02-15","launch_site_code":"AFETR","launch_vehicle":null,"mission":null,"orbit_class":"UNKNOWN","rcs_meters":null,"size_class":null,"mass_kg":null,"dimensions":null,"purposes":["comms"],"wikipedia_slug":null,"has_3d_model":false,"image_url":null,"decayed_at":null,"tle_current":{"epoch":"2026-09-21T21:31:01.875936Z","epoch_age_seconds":44425,"freshness":"FRESH","line1":"1 63016U 25032M   26264.89654949  .00144757  00000+0  11063-2 0  9992","line2":"2 63016  43.0027  92.5229 0005244 249.7746 110.2558 15.70951257 93081","mean_motion":15.70951257,"eccentricity":0.0005244,"inclination_deg":43.0027,"raan_deg":92.5229,"arg_perigee_deg":249.7746,"mean_anomaly_deg":110.2558,"bstar":0.0011063,"rev_number":9308,"period_min":91.664206230684,"perigee_km":352.64561270066,"apogee_km":359.70856131512,"semimajor_km":6734.3140870079,"source":"CELESTRAK","updated_at":"2026-09-22T09:00:49.740953Z"}}}